Location: Deep Valley
(39.7548°N, 80.4695°W)
Time: 13:53:20
(UTC+00:00)

ISS - Pass Details

Date: 25 November 2020
Orbit: 418 x 419 km, 51.6° (Epoch: 18 January)

Event Time Altitude Azimuth Distance (km) Brightness Sun altitude
Rises 22:20:38 0° 253° (WSW) 2,359 2.6 -4.5°
Reaches altitude 10° 22:22:51 10° 263° (W) 1,497 0.6 -4.9°
Maximum altitude 22:25:56 34° 330° (NNW) 718 -2.5 -5.4°
Drops below altitude 10° 22:29:03 10° 38° (NE) 1,501 -1.5 -6.0°
Enters shadow 22:29:55 - 43° (NE) 1,830 -1.1 -6.1°
